"Pseudo-MPEC" for P10SyjK

Created 2019 Oct 11 11:07:29 UT using Find_Orb

Click here for an explanation of pseudo-MPECs

 
 Astrometry: 
     P10SyjK  C2019 09 25!fGs$o^R`hk_yEL7DP]037$CL9.%otLhRu'*\'L'y2x8CB!SVlXLF51
     P10SyjK  C2019 09 25i^@Qc5KiWWd^bF?4(.ql:i\my(%KrcEILZO;l,Z*HZJ]bB7q9^Q-F51
     P10SyjK  C2019 09 25MgULpZQhxw7$1@t#MT.u422wT$HHbS/5Ad;kylYwiJ!!kOXr)fGrF51
     P10SyjK  C2019 09 25x4I-8K/T$Cy)^j\*#Yt(4OMd-EGtF?LZBYLmAstrometryhLaI%DF51
     P10SyjK  C2019 10 07aJlM9@/Mo\kV'm*(fWb/j5V3;\t?brfxrmk8#a_dAWHICY1,Jc7pF51
     P10SyjK  C2019 10 07E1ia)oM[BAL4xDv]bn$spM=P9#TmfkcfRredacted;'_UtDPXNx.F51
     P10SyjK  C2019 10 07eajclick4sqQId/WXuHu;$NC=*Rhere7N\k`dCo)*qsfor?DEJmcF51
     P10SyjK  C2019 10 07YJA/L=$PE!mOS^Wi)=-Mf718d*\/U*sexplanationh.nQ[e0101F51
     P10SyjK ^C2019 10 08.50690 02 00 37.911+09 06 28.52   ~AB1M 21.1 GVNEOCP568
     P10SyjK ^C2019 10 08.50893 02 00 37.852+09 06 28.24   ~AB1M 20.9 GVNEOCP568
     P10SyjK KC2019 10 09.40175 02 00 18.38 +09 04 13.0    ~A9Ab 20.8 RoNEOCP291
     P10SyjK KC2019 10 09.40763 02 00 18.22 +09 04 12.1    ~A9Ab 20.8 RoNEOCP291
     P10SyjK KC2019 10 09.41309 02 00 18.07 +09 04 11.3    ~A9Ab 20.7 RoNEOCP291
     P10SyjK KC2019 10 10.22905 02 00 00.16 +09 02 06.3    ~AA6M 20.6 RoNEOCP291
     P10SyjK KC2019 10 10.23279 02 00 00.02 +09 02 06.3    ~AA6M 20.5 RoNEOCP291
     P10SyjK KC2019 10 10.23653 01 59 59.90 +09 02 04.8    ~AA6M 20.6 RoNEOCP291

Station data:
(291) LPL/Spacewatch II  (N31.961669 W111.599905)  US/Arizona.  Observers J.
   V. Scotti, R. S. McMillan. 1.8-m f/2.7 reflector + CCD.
(568) Mauna Kea  (N19.826116 W155.472200)  US/Hawaii.
(F51) Pan-STARRS 1, Haleakala  (N20.707235 W156.255910)  US/Hawaii.
   Observers N. Primak, A. Schultz, S. Watters, J. Thiel, T. Goggia. Measurer
   PS1 Science Consortium. 1.8-m Ritchey-Chrétien + CCD.

Orbital elements:  P10SyjK
   Perihelion 2019 Nov 8.145429 +/- 2.3 TT =  3:29:25 (JD 2458795.645429)
Epoch 2019 Oct 10.0 TT = JDT 2458766.5   Earth MOID: 0.5980   AutoNEOCP
M 352.21330513 +/- 0.6              (J2000 ecliptic)
n   0.26716693 +/- 0.000378         Peri.  294.91395 +/- 1.7
a   2.38752308 +/- 0.00225          Node   103.37112 +/- 0.40
e   0.3338195 +/- 0.00046           Incl.    1.17218 +/- 0.0033
P   3.69                   H 20.7   G  0.15   U  7.5  
q 1.59052109 +/- 0.000956    Q 3.18452507 +/- 0.00392
From 16 observations 2019 Sept. 25-Oct. 10; mean residual 0".17
Residuals in arcseconds: 
190925 F51  .02+  .06-    191007 F51  .01-  .05-    191009 291  .11-  .16+    
190925 F51  .03+  .00     191007 F51  .02-  .03+    191010 291  .50+  .11-    
190925 F51  .00   .06+    191008 568  .07+  .10-    191010 291  .05-  .44+    
190925 F51  .05-  .01-    191008 568  .01-  .07-    191010 291  .29-  .51-    
191007 F51  .04+  .03+    191009 291  .08-  .10+    
191007 F51  .01+  .05+    191009 291  .08-  .11+    

Ephemerides (geocentric):
Date (UTC) HH   RA              Dec         delta   r     elong  mag " sig PA
---- -- -- --  -------------   -----------  ------ ------ -----  --- ---- ---
2019 10 11 11  01 59 29.412   +08 58 59.56  .61787 1.6054 166.3 21.3 .367 153
2019 10 11 12  01 59 28.352   +08 58 52.92  .61777 1.6053 166.3 21.3 .373 154
2019 10 11 13  01 59 27.289   +08 58 46.28  .61766 1.6053 166.4 21.3 .379 155
2019 10 11 14  01 59 26.224   +08 58 39.63  .61756 1.6052 166.4 21.3 .385 155
2019 10 11 15  01 59 25.156   +08 58 32.98  .61746 1.6052 166.5 21.2 .391 156
2019 10 11 16  01 59 24.087   +08 58 26.31  .61736 1.6051 166.5 21.2 .397 157
2019 10 11 17  01 59 23.014   +08 58 19.65  .61725 1.6051 166.6 21.2 .403 157
2019 10 11 18  01 59 21.940   +08 58 12.97  .61715 1.6050 166.6 21.2 .410 158
2019 10 11 19  01 59 20.863   +08 58 06.29  .61705 1.6050 166.7 21.2 .416 159
2019 10 11 20  01 59 19.784   +08 57 59.61  .61695 1.6050 166.7 21.2 .423 159
2019 10 11 21  01 59 18.702   +08 57 52.91  .61684 1.6049 166.7 21.2 .429 160
2019 10 11 22  01 59 17.619   +08 57 46.21  .61674 1.6049 166.8 21.2 .436 161
2019 10 11 23  01 59 16.532   +08 57 39.51  .61664 1.6048 166.8 21.2 .443 161
2019 10 12 00  01 59 15.444   +08 57 32.80  .61654 1.6048 166.9 21.2 .449 162
2019 10 12 01  01 59 14.353   +08 57 26.08  .61644 1.6047 166.9 21.2 .456 163
2019 10 12 02  01 59 13.260   +08 57 19.36  .61634 1.6047 167.0 21.2 .463 163
2019 10 12 03  01 59 12.165   +08 57 12.63  .61624 1.6047 167.0 21.2 .470 164
2019 10 12 04  01 59 11.067   +08 57 05.90  .61614 1.6046 167.1 21.2 .478 164
2019 10 12 05  01 59 09.967   +08 56 59.16  .61604 1.6046 167.1 21.2 .485 165
2019 10 12 06  01 59 08.865   +08 56 52.41  .61595 1.6045 167.1 21.2 .492 166
2019 10 12 07  01 59 07.761   +08 56 45.66  .61585 1.6045 167.2 21.2 .500 166
2019 10 12 08  01 59 06.654   +08 56 38.91  .61575 1.6044 167.2 21.2 .507 167
2019 10 12 09  01 59 05.545   +08 56 32.14  .61565 1.6044 167.3 21.2 .515 168
2019 10 12 10  01 59 04.434   +08 56 25.38  .61555 1.6044 167.3 21.2 .523 168
2019 10 12 11  01 59 03.320   +08 56 18.60  .61546 1.6043 167.4 21.2 .531 169
2019 10 12 12  01 59 02.205   +08 56 11.82  .61536 1.6043 167.4 21.2 .538 169
2019 10 12 13  01 59 01.087   +08 56 05.04  .61526 1.6042 167.5 21.2 .547 170
2019 10 12 14  01 58 59.966   +08 55 58.25  .61517 1.6042 167.5 21.2 .555 171
2019 10 12 15  01 58 58.844   +08 55 51.45  .61507 1.6041 167.6 21.2 .563 171
2019 10 12 16  01 58 57.719   +08 55 44.65  .61498 1.6041 167.6 21.2 .571 172
2019 10 12 17  01 58 56.593   +08 55 37.85  .61488 1.6041 167.6 21.2 .580 172
2019 10 12 18  01 58 55.464   +08 55 31.04  .61478 1.6040 167.7 21.2 .588 173
2019 10 12 19  01 58 54.332   +08 55 24.22  .61469 1.6040 167.7 21.2 .597 174
2019 10 12 20  01 58 53.199   +08 55 17.40  .61460 1.6039 167.8 21.2 .606 174
2019 10 12 21  01 58 52.063   +08 55 10.57  .61450 1.6039 167.8 21.2 .615 175
2019 10 12 22  01 58 50.926   +08 55 03.74  .61441 1.6038 167.9 21.2 .624 175
2019 10 12 23  01 58 49.786   +08 54 56.90  .61431 1.6038 167.9 21.2 .633 176
2019 10 13 00  01 58 48.644   +08 54 50.06  .61422 1.6038 168.0 21.2 .642 176
2019 10 13 01  01 58 47.499   +08 54 43.21  .61413 1.6037 168.0 21.2 .652 177
2019 10 13 02  01 58 46.353   +08 54 36.36  .61404 1.6037 168.0 21.2 .661 178
2019 10 13 03  01 58 45.204   +08 54 29.51  .61394 1.6036 168.1 21.2 .671 178
2019 10 13 04  01 58 44.054   +08 54 22.64  .61385 1.6036 168.1 21.2 .681 179
2019 10 13 05  01 58 42.901   +08 54 15.78  .61376 1.6036 168.2 21.2 .691 179
2019 10 13 06  01 58 41.746   +08 54 08.91  .61367 1.6035 168.2 21.2 .701   0
2019 10 13 07  01 58 40.589   +08 54 02.03  .61358 1.6035 168.3 21.2 .711   0
2019 10 13 08  01 58 39.430   +08 53 55.15  .61349 1.6034 168.3 21.2 .721   1
2019 10 13 09  01 58 38.269   +08 53 48.26  .61340 1.6034 168.4 21.2 .732   1
2019 10 13 10  01 58 37.105   +08 53 41.37  .61331 1.6033 168.4 21.2 .743   2